Flag for Colombia Weather past 2 weeks in Bucaramanga, Colombia

Now
81 °F

Passing clouds.


Feels Like: 81 °F
Forecast: 69 / 87 °F
Wind: 3 mph from South

Location: Bucaramanga / Palonegro

Current Time: Aug 29, 2015 at 10:46:06 AM

Latest Report: Aug 29, 2015 at 10:00 AM


Visibility: N/A

Pressure: 30.02 "Hg (26.92 "Hg at 956m altitude)

Humidity: 48%

Dew point: 59 °F

Location of BucaramangaLocation

Historic Weather in Bucaramanga — Graph

°F

Bucaramanga temperature yesterday

Maximum temperature yesterday: 81 °F (at 12:00 PM)
Minimum temperature yesterday: 66 °F (at 6:00 AM)
Average temperature yesterday: 75 °F

Past Weeks' High & Low Weather Summary

 TemperatureHumidityPressure
High84 °F (Aug 19, 1:00 PM)100% (Aug 15, 7:00 AM)30.09 "Hg (Aug 15, 7:00 AM)
Low64 °F (Aug 20, 11:00 PM)48% (Aug 19, 1:00 PM)29.88 "Hg (Aug 20, 4:00 PM)
Average73 °F80%29.98 "Hg
* Reported Aug 14 10:00 AM — Aug 29 10:00 AM, Bucaramanga, Weather by CustomWeather, © 2015

Note: Actual official high and low records may vary slightly from our data, if they occured in-between our weather recording intervals... More about our weather records

Advertising

Bucaramanga weather history for previous 24 hours

 ConditionsComfort  
Time TempWeatherWind HumidityBarometerVisibility
10:00 AM
Sat, Aug 29
81 °FPassing clouds.3 mph48%30.02 "HgN/A
9:00 AM75 °FPassing clouds.6 mph65%30.03 "HgN/A
8:00 AM72 °FPassing clouds.7 mph73%30.00 "HgN/A
7:00 AM68 °FPassing clouds.8 mph88%29.97 "HgN/A
6:00 AM68 °FPassing clouds.8 mph94%29.95 "HgN/A
11:00 PM
Fri, Aug 28
72 °FPassing clouds.2 mph88%30.01 "HgN/A
10:00 PM73 °FPassing clouds.2 mph83%29.99 "HgN/A
9:00 PM72 °FPassing clouds.2 mph83%29.99 "HgN/A
8:00 PM73 °FPassing clouds.2 mph78%29.95 "HgN/A
7:00 PM73 °FPassing clouds.6 mph78%29.90 "HgN/A
6:00 PM75 °FScattered clouds.3 mph78%29.89 "HgN/A
5:00 PM77 °FScattered clouds.7 mph69%29.89 "HgN/A
4:00 PM77 °FScattered showers. Scattered clouds.8 mph69%29.88 "HgN/A
3:00 PM77 °FScattered showers. Scattered clouds.7 mph69%29.89 "HgN/A
2:00 PM81 °FScattered clouds.5 mph62%29.90 "HgN/A
1:00 PM81 °FScattered clouds.5 mph62%29.93 "HgN/A
12:00 PM81 °FScattered clouds.6 mph62%29.97 "HgN/A
11:00 AM79 °FScattered clouds.3 mph65%30.01 "HgN/A
10:00 AM77 °FPassing clouds.3 mph69%30.03 "HgN/A
Weather by CustomWeather, © 2015

See weather overviewHow to use our weather pages